| time (UTC) | temp C | wind direction | speed KPH | gust KPH | rain 1hr cm | rain 24hr cm | rain mn cm | humidity % | barometer mb |
| 20260504050516 | 10 | 185 | 8.0 | 17.7 | 0.00 | 0.00 | 0.00 | 76 | 1004.8 |
| 20260504050016 | 10 | 189 | 8.0 | 17.7 | 0.00 | 0.00 | 0.00 | 77 | 1004.8 |
| 20260504045516 | 10 | 179 | 8.0 | 17.7 | 0.00 | 0.00 | 0.00 | 77 | 1004.8 |
| 20260504045016 | 10 | 182 | 6.4 | 14.5 | 0.00 | 0.00 | 0.00 | 77 | 1004.9 |
| 20260504044516 | 10 | 186 | 6.4 | 14.5 | 0.00 | 0.00 | 0.00 | 77 | 1004.9 |
| 20260504044016 | 10 | 172 | 6.4 | 17.7 | 0.00 | 0.00 | 0.00 | 77 | 1005.0 |
| 20260504043516 | 10 | 166 | 8.0 | 17.7 | 0.00 | 0.00 | 0.00 | 77 | 1005.0 |
| 20260504043016 | 10 | 168 | 6.4 | 14.5 | 0.00 | 0.00 | 0.00 | 77 | 1005.1 |
| 20260504042516 | 10 | 185 | 6.4 | 25.7 | 0.00 | 0.00 | 0.00 | 77 | 1005.1 |
| 20260504042056 | 9 | 173 | 8.0 | 25.7 | 0.00 | 0.00 | 0.00 | 78 | 1005.1 |
| 20260504041537 | 9 | 174 | 6.4 | 17.7 | 0.00 | 0.00 | 0.00 | 77 | 1005.0 |
| 20260504041016 | 9 | 168 | 6.4 | 17.7 | 0.00 | 0.00 | 0.00 | 78 | 1005.1 |
| 20260504040516 | 9 | 169 | 8.0 | 16.1 | 0.00 | 0.00 | 0.00 | 78 | 1005.2 |
| 20260504040016 | 9 | 155 | 4.8 | 16.1 | 0.00 | 0.00 | 0.00 | 77 | 1005.2 |
| 20260504035517 | 9 | 158 | 4.8 | 16.1 | 0.00 | 0.00 | 0.00 | 77 | 1005.3 |
| 20260504035016 | 9 | 160 | 4.8 | 16.1 | 0.00 | 0.00 | 0.00 | 77 | 1005.3 |
| 20260504034536 | 9 | 168 | 4.8 | 14.5 | 0.00 | 0.00 | 0.00 | 77 | 1005.3 |
| 20260504034017 | 9 | 164 | 4.8 | 16.1 | 0.00 | 0.00 | 0.00 | 77 | 1005.3 |
| 20260504033516 | 9 | 166 | 4.8 | 16.1 | 0.00 | 0.00 | 0.00 | 77 | 1005.4 |
| 20260504033017 | 9 | 157 | 4.8 | 14.5 | 0.00 | 0.00 | 0.00 | 77 | 1005.5 |
| 20260504032516 | 9 | 178 | 4.8 | 14.5 | 0.00 | 0.00 | 0.00 | 76 | 1005.4 |
| 20260504032016 | 9 | 160 | 6.4 | 14.5 | 0.00 | 0.00 | 0.00 | 76 | 1005.5 |
| 20260504031516 | 9 | 169 | 6.4 | 14.5 | 0.00 | 0.00 | 0.00 | 76 | 1005.5 |
| 20260504031016 | 9 | 156 | 6.4 | 17.7 | 0.00 | 0.00 | 0.00 | 76 | 1005.5 |
| 20260504030516 | 9 | 165 | 8.0 | 17.7 | 0.00 | 0.00 | 0.00 | 76 | 1005.6 |
| 20260504030016 | 9 | 161 | 6.4 | 16.1 | 0.00 | 0.00 | 0.00 | 75 | 1005.6 |
| 20260504025516 | 9 | 164 | 6.4 | 16.1 | 0.00 | 0.00 | 0.00 | 75 | 1005.6 |
| 20260504025016 | 10 | 165 | 6.4 | 16.1 | 0.00 | 0.00 | 0.00 | 75 | 1005.4 |
| 20260504024517 | 10 | 164 | 4.8 | 16.1 | 0.00 | 0.00 | 0.00 | 74 | 1005.4 |
| 20260504024016 | 10 | 156 | 8.0 | 16.1 | 0.00 | 0.00 | 0.00 | 74 | 1005.4 |
| 20260504023516 | 10 | 155 | 8.0 | 14.5 | 0.00 | 0.00 | 0.00 | 74 | 1005.3 |
| 20260504023016 | 10 | 162 | 4.8 | 14.5 | 0.00 | 0.00 | 0.00 | 73 | 1005.4 |
| 20260504022536 | 10 | 166 | 6.4 | 16.1 | 0.00 | 0.00 | 0.00 | 73 | 1005.4 |
| 20260504022016 | 10 | 159 | 8.0 | 20.9 | 0.00 | 0.00 | 0.00 | 73 | 1005.3 |
| 20260504021516 | 10 | 173 | 9.7 | 22.5 | 0.00 | 0.00 | 0.00 | 72 | 1005.4 |
| 20260504021016 | 10 | 162 | 8.0 | 22.5 | 0.00 | 0.00 | 0.00 | 72 | 1005.4 |
| 20260504020517 | 10 | 172 | 6.4 | 17.7 | 0.00 | 0.00 | 0.00 | 72 | 1005.5 |
| 20260504020017 | 10 | 159 | 6.4 | 16.1 | 0.00 | 0.00 | 0.00 | 71 | 1005.4 |
| 20260504015516 | 10 | 168 | 8.0 | 16.1 | 0.00 | 0.00 | 0.00 | 71 | 1005.5 |
| 20260504015016 | 10 | 169 | 8.0 | 16.1 | 0.00 | 0.00 | 0.00 | 71 | 1005.4 |
| 20260504014516 | 10 | 162 | 8.0 | 19.3 | 0.00 | 0.00 | 0.00 | 70 | 1005.3 |
| 20260504014017 | 10 | 167 | 9.7 | 19.3 | 0.00 | 0.00 | 0.00 | 70 | 1005.2 |
| 20260504013516 | 10 | 163 | 9.7 | 24.1 | 0.00 | 0.00 | 0.00 | 70 | 1005.2 |
| 20260504013016 | 10 | 156 | 11.3 | 24.1 | 0.00 | 0.00 | 0.00 | 69 | 1005.1 |
| 20260504012517 | 10 | 165 | 9.7 | 24.1 | 0.00 | 0.00 | 0.00 | 69 | 1005.1 |
| 20260504012016 | 11 | 171 | 11.3 | 25.7 | 0.00 | 0.00 | 0.00 | 69 | 1005.2 |
| 20260504011517 | 11 | 170 | 11.3 | 25.7 | 0.00 | 0.00 | 0.00 | 68 | 1005.2 |
| 20260504011016 | 11 | 170 | 12.9 | 25.7 | 0.00 | 0.00 | 0.00 | 68 | 1005.2 |
| 20260504010516 | 11 | 171 | 11.3 | 25.7 | 0.00 | 0.00 | 0.00 | 68 | 1005.3 |
| 20260504010036 | 11 | 173 | 11.3 | 22.5 | 0.00 | 0.00 | 0.00 | 68 | 1005.3 |
| 20260504005517 | 11 | 173 | 11.3 | 24.1 | 0.00 | 0.00 | 0.00 | 67 | 1005.3 |
| 20260504005017 | 11 | 171 | 11.3 | 24.1 | 0.00 | 0.00 | 0.00 | 66 | 1005.3 |
| 20260504004516 | 11 | 173 | 11.3 | 27.4 | 0.00 | 0.00 | 0.00 | 66 | 1005.3 |
| 20260504004016 | 11 | 179 | 12.9 | 27.4 | 0.00 | 0.00 | 0.00 | 66 | 1005.3 |
| 20260504003516 | 11 | 168 | 11.3 | 25.7 | 0.00 | 0.00 | 0.00 | 65 | 1005.4 |
| 20260504003016 | 11 | 171 | 14.5 | 27.4 | 0.00 | 0.00 | 0.00 | 65 | 1005.3 |
| 20260504002516 | 11 | 176 | 12.9 | 27.4 | 0.00 | 0.00 | 0.00 | 64 | 1005.4 |
| 20260504002017 | 11 | 181 | 14.5 | 27.4 | 0.00 | 0.00 | 0.00 | 64 | 1005.5 |
| 20260504001516 | 11 | 176 | 9.7 | 27.4 | 0.00 | 0.00 | 0.00 | 64 | 1005.5 |
| 20260504001016 | 12 | 183 | 11.3 | 27.4 | 0.00 | 0.00 | 0.00 | 63 | 1005.6 |
| 20260504000536 | 12 | 191 | 12.9 | 27.4 | 0.00 | 0.00 | 0.00 | 62 | 1005.7 |
| 20260504000037 | 12 | 176 | 14.5 | 29.0 | 0.00 | 0.00 | 0.00 | 62 | 1005.7 |
| 20260503235516 | 12 | 190 | 11.3 | 40.2 | 0.00 | 0.00 | 0.00 | 62 | 1005.8 |
| 20260503235017 | 12 | 179 | 14.5 | 40.2 | 0.00 | 0.00 | 0.00 | 61 | 1005.7 |
| 20260503234537 | 12 | 188 | 16.1 | 30.6 | 0.00 | 0.00 | 0.00 | 61 | 1005.8 |
| 20260503234016 | 12 | 181 | 11.3 | 29.0 | 0.00 | 0.00 | 0.00 | 60 | 1005.8 |
| 20260503233537 | 12 | 188 | 14.5 | 35.4 | 0.00 | 0.00 | 0.00 | 60 | 1005.8 |
| 20260503233036 | 12 | 195 | 19.3 | 35.4 | 0.00 | 0.00 | 0.00 | 59 | 1005.8 |
| 20260503232517 | 12 | 192 | 16.1 | 33.8 | 0.00 | 0.00 | 0.00 | 59 | 1005.8 |
| 20260503232037 | 13 | 193 | 16.1 | 30.6 | 0.00 | 0.00 | 0.00 | 58 | 1005.9 |
| 20260503231516 | 13 | 192 | 14.5 | 32.2 | 0.00 | 0.00 | 0.00 | 59 | 1006.0 |
| 20260503231036 | 13 | 190 | 14.5 | 32.2 | 0.00 | 0.00 | 0.00 | 58 | 1006.0 |
| 20260503230517 | 13 | 188 | 11.3 | 32.2 | 0.00 | 0.00 | 0.00 | 58 | 1006.1 |
| 20260503230016 | 13 | 199 | 14.5 | 32.2 | 0.00 | 0.00 | 0.00 | 59 | 1006.2 |
| 20260503225516 | 12 | 183 | 12.9 | 29.0 | 0.00 | 0.00 | 0.00 | 60 | 1006.3 |
| 20260503225016 | 12 | 193 | 12.9 | 30.6 | 0.00 | 0.00 | 0.00 | 61 | 1006.4 |
| 20260503224516 | 12 | 190 | 17.7 | 41.8 | 0.00 | 0.00 | 0.00 | 60 | 1006.5 |
| 20260503224016 | 12 | 179 | 20.9 | 41.8 | 0.00 | 0.00 | 0.00 | 60 | 1006.6 |
| 20260503223536 | 12 | 193 | 12.9 | 30.6 | 0.00 | 0.00 | 0.00 | 61 | 1006.6 |
| 20260503223036 | 12 | 169 | 12.9 | 30.6 | 0.00 | 0.00 | 0.00 | 62 | 1006.8 |
| 20260503222516 | 12 | 179 | 16.1 | 27.4 | 0.00 | 0.00 | 0.00 | 62 | 1006.9 |
| 20260503222016 | 12 | 167 | 16.1 | 30.6 | 0.00 | 0.00 | 0.00 | 62 | 1007.0 |
| 20260503221517 | 11 | 162 | 16.1 | 30.6 | 0.00 | 0.00 | 0.00 | 62 | 1007.1 |
| 20260503221016 | 11 | 185 | 12.9 | 27.4 | 0.00 | 0.00 | 0.00 | 63 | 1007.2 |
| 20260503220516 | 11 | 184 | 14.5 | 35.4 | 0.00 | 0.00 | 0.00 | 63 | 1007.3 |
| 20260503220016 | 11 | 182 | 17.7 | 35.4 | 0.00 | 0.00 | 0.00 | 62 | 1007.4 |
| 20260503215516 | 11 | 192 | 14.5 | 30.6 | 0.00 | 0.00 | 0.00 | 63 | 1007.4 |
| 20260503215016 | 11 | 179 | 16.1 | 29.0 | 0.00 | 0.00 | 0.00 | 65 | 1007.4 |
| 20260503214517 | 11 | 182 | 11.3 | 25.7 | 0.00 | 0.00 | 0.00 | 65 | 1007.4 |
| 20260503214016 | 11 | 200 | 14.5 | 25.7 | 0.00 | 0.00 | 0.00 | 65 | 1007.4 |
| 20260503213516 | 11 | 170 | 14.5 | 25.7 | 0.00 | 0.00 | 0.00 | 64 | 1007.5 |
| 20260503213016 | 11 | 193 | 9.7 | 19.3 | 0.00 | 0.00 | 0.00 | 64 | 1007.5 |
| 20260503212516 | 11 | 202 | 9.7 | 19.3 | 0.00 | 0.00 | 0.00 | 64 | 1007.8 |
| 20260503212015 | 11 | 208 | 8.0 | 16.1 | 0.00 | 0.00 | 0.00 | 64 | 1007.6 |
| 20260503211516 | 11 | 207 | 8.0 | 37.0 | 0.00 | 0.00 | 0.00 | 64 | 1007.8 |
| 20260503211036 | 11 | 194 | 11.3 | 37.0 | 0.00 | 0.00 | 0.00 | 63 | 1007.7 |
| 20260503210516 | 11 | 201 | 12.9 | 25.7 | 0.00 | 0.00 | 0.00 | 63 | 1007.8 |
| 20260503210016 | 11 | 190 | 16.1 | 30.6 | 0.00 | 0.00 | 0.00 | 63 | 1007.8 |
| 20260503205516 | 11 | 182 | 19.3 | 30.6 | 0.00 | 0.00 | 0.00 | 63 | 1007.9 |
| 20260503205015 | 11 | 198 | 12.9 | 29.0 | 0.00 | 0.00 | 0.00 | 63 | 1007.9 |
| 20260503204516 | 11 | 201 | 12.9 | 29.0 | 0.00 | 0.00 | 0.00 | 63 | 1007.9 |
| 20260503204036 | 11 | 207 | 16.1 | 27.4 | 0.00 | 0.00 | 0.00 | 62 | 1008.1 |
| 20260503203536 | 11 | 201 | 11.3 | 27.4 | 0.00 | 0.00 | 0.00 | 63 | 1008.2 |
| 20260503203016 | 11 | 211 | 9.7 | 30.6 | 0.00 | 0.00 | 0.00 | 63 | 1008.3 |
| 20260503202515 | 11 | 220 | 14.5 | 30.6 | 0.00 | 0.00 | 0.00 | 62 | 1008.4 |
| 20260503202016 | 11 | 229 | 14.5 | 29.0 | 0.00 | 0.00 | 0.00 | 62 | 1008.6 |
| 20260503201556 | 11 | 226 | 14.5 | 27.4 | 0.00 | 0.00 | 0.00 | 62 | 1008.6 |
| 20260503201015 | 11 | 219 | 12.9 | 33.8 | 0.00 | 0.00 | 0.00 | 61 | 1008.8 |
| 20260503200515 | 11 | 235 | 20.9 | 33.8 | 0.00 | 0.00 | 0.00 | 61 | 1008.8 |
| 20260503200016 | 11 | 230 | 16.1 | 35.4 | 0.00 | 0.00 | 0.00 | 61 | 1008.8 |
| 20260503195516 | 11 | 226 | 19.3 | 35.4 | 0.00 | 0.00 | 0.00 | 61 | 1008.9 |
| 20260503195015 | 12 | 236 | 19.3 | 32.2 | 0.00 | 0.00 | 0.00 | 60 | 1009.0 |
| 20260503194535 | 12 | 241 | 14.5 | 37.0 | 0.00 | 0.00 | 0.00 | 60 | 1009.1 |
| 20260503194015 | 12 | 236 | 22.5 | 37.0 | 0.00 | 0.00 | 0.00 | 59 | 1009.0 |
| 20260503193515 | 12 | 236 | 22.5 | 45.1 | 0.00 | 0.00 | 0.00 | 59 | 1009.2 |
| 20260503193016 | 12 | 245 | 25.7 | 45.1 | 0.00 | 0.00 | 0.00 | 58 | 1009.3 |
| 20260503192536 | 12 | 238 | 25.7 | 43.5 | 0.00 | 0.00 | 0.00 | 57 | 1009.4 |
| 20260503192016 | 12 | 240 | 30.6 | 43.5 | 0.00 | 0.00 | 0.00 | 56 | 1009.4 |
| 20260503191515 | 12 | 232 | 25.7 | 48.3 | 0.00 | 0.00 | 0.00 | 56 | 1009.5 |
| 20260503191016 | 12 | 243 | 30.6 | 48.3 | 0.00 | 0.00 | 0.00 | 55 | 1009.5 |
| 20260503190515 | 13 | 252 | 33.8 | 48.3 | 0.00 | 0.00 | 0.00 | 55 | 1009.4 |
| 20260503190015 | 13 | 247 | 33.8 | 48.3 | 0.00 | 0.00 | 0.00 | 54 | 1009.5 |
| 20260503185516 | 13 | 257 | 27.4 | 43.5 | 0.00 | 0.00 | 0.00 | 53 | 1009.5 |
| 20260503185035 | 13 | 241 | 25.7 | 45.1 | 0.00 | 0.00 | 0.00 | 54 | 1009.5 |
| 20260503184517 | 13 | 252 | 30.6 | 45.1 | 0.00 | 0.00 | 0.00 | 51 | 1009.5 |
| 20260503184015 | 14 | 251 | 29.0 | 51.5 | 0.00 | 0.00 | 0.00 | 51 | 1009.4 |
| 20260503183536 | 14 | 251 | 27.4 | 51.5 | 0.00 | 0.00 | 0.00 | 51 | 1009.5 |
| 20260503183016 | 14 | 228 | 27.4 | 48.3 | 0.00 | 0.00 | 0.00 | 50 | 1009.7 |
| 20260503182515 | 14 | 249 | 29.0 | 51.5 | 0.00 | 0.00 | 0.00 | 49 | 1009.5 |
| 20260503182016 | 14 | 244 | 33.8 | 51.5 | 0.00 | 0.00 | 0.00 | 49 | 1009.6 |
| 20260503181515 | 14 | 250 | 30.6 | 48.3 | 0.00 | 0.00 | 0.00 | 48 | 1009.5 |
| 20260503181016 | 14 | 256 | 32.2 | 48.3 | 0.00 | 0.00 | 0.00 | 49 | 1009.5 |
| 20260503180515 | 14 | 237 | 27.4 | 48.3 | 0.00 | 0.00 | 0.00 | 50 | 1009.7 |
| 20260503180015 | 14 | 243 | 30.6 | 54.7 | 0.00 | 0.00 | 0.00 | 49 | 1009.7 |
| 20260503175517 | 14 | 251 | 32.2 | 54.7 | 0.00 | 0.00 | 0.00 | 49 | 1009.6 |
| 20260503175015 | 14 | 247 | 32.2 | 53.1 | 0.00 | 0.00 | 0.00 | 49 | 1009.6 |
| 20260503174516 | 14 | 248 | 32.2 | 48.3 | 0.00 | 0.00 | 0.00 | 49 | 1009.7 |
| 20260503174016 | 14 | 246 | 30.6 | 54.7 | 0.00 | 0.00 | 0.00 | 50 | 1009.8 |
| 20260503173535 | 13 | 248 | 33.8 | 54.7 | 0.00 | 0.00 | 0.00 | 49 | 1009.9 |
| 20260503173015 | 13 | 257 | 25.7 | 46.7 | 0.00 | 0.00 | 0.00 | 49 | 1010.0 |
| 20260503172515 | 13 | 240 | 27.4 | 56.3 | 0.00 | 0.00 | 0.00 | 48 | 1010.1 |
| 20260503172015 | 13 | 238 | 29.0 | 56.3 | 0.00 | 0.00 | 0.00 | 49 | 1010.2 |
| 20260503171515 | 13 | 233 | 27.4 | 49.9 | 0.00 | 0.00 | 0.00 | 48 | 1010.3 |
| 20260503171035 | 13 | 244 | 25.7 | 54.7 | 0.00 | 0.00 | 0.00 | 49 | 1010.3 |
| 20260503170515 | 13 | 241 | 29.0 | 54.7 | 0.00 | 0.00 | 0.00 | 49 | 1010.3 |
| 20260503170136 | 13 | 226 | 24.1 | 41.8 | 0.00 | 0.00 | 0.00 | 49 | 1010.3 |
| 20260503150516 | 11 | 223 | 19.3 | 38.6 | 0.00 | 0.00 | 0.00 | 48 | 1011.1 |
| 20260503131017 | 8 | 227 | 9.7 | 16.1 | 0.00 | 0.00 | 0.00 | 61 | 1012.0 |
| 20260503130517 | 7 | 234 | 9.7 | 16.1 | 0.00 | 0.00 | 0.00 | 62 | 1012.0 |
| 20260503110516 | 3 | 114 | 0.0 | 4.8 | 0.00 | 0.00 | 0.00 | 72 | 1011.8 |
| 20260503081537 | 4 | 201 | 4.8 | 9.7 | 0.00 | 0.00 | 0.00 | 64 | 1012.3 |
| 20260503081017 | 4 | 204 | 1.6 | 9.7 | 0.00 | 0.00 | 0.00 | 64 | 1012.3 |
| 20260503080516 | 4 | 224 | 3.2 | 9.7 | 0.00 | 0.00 | 0.00 | 63 | 1012.3 |
| 20260503072517 | 5 | 201 | 4.8 | 12.9 | 0.00 | 0.00 | 0.00 | 61 | 1012.5 |
| 20260503072017 | 5 | 211 | 6.4 | 12.9 | 0.00 | 0.00 | 0.00 | 61 | 1012.5 |
| 20260503071536 | 5 | 217 | 4.8 | 11.3 | 0.00 | 0.00 | 0.00 | 61 | 1012.6 |
| 20260503071016 | 5 | 196 | 4.8 | 11.3 | 0.00 | 0.00 | 0.00 | 60 | 1012.6 |
| 20260503070516 | 5 | 198 | 3.2 | 11.3 | 0.00 | 0.00 | 0.00 | 60 | 1012.7 |